Terminal Aerodrome Forecast
Issued by NWS

Home | Current Version | Previous Version | Graphics & Text | Print | Product List | Glossary On
Versions: 1 2 3 4 5 6 7 8 9 10 11 12
000
FTUS42 KMHX 281100
TAFPGV
TAF
KPGV 281128Z 2812/2912 22007KT P6SM SCT040 BKN150
     FM281400 27011G17KT P6SM SCT040
     FM290000 35005KT P6SM SCT050
      AMD LTD TO CLD VIS AND WIND=

USA.gov is the U.S. government's official web portal to all federal, state and local government web resources and services.